DateTimeUTC,F1_A11,F1_S11,BsB_S11,BsG_S11,BsR_S11,BbsB_S11,BbsG_S11,BbsR_S11,BaB_A11,BaG_A11,BaR_A11,Tu_S11,T_S11,Uu_S11,U_S11,P_S11,T1_A11
2021-07-16T21:00:00Z,00000200,20000000,,,,,,,-000.07,-000.26,-000.18,19.0,25.8,07.5,05.0,0676.1,31.1
2021-07-16T21:01:00Z,00000200,20000000,,,,,,,0000.23,0000.53,0000.16,19.0,25.8,07.6,05.0,0676.1,31.1
2021-07-16T21:02:00Z,00000200,20000000,,,,,,,-000.14,-000.09,0000.03,19.0,25.8,07.6,05.0,0676.1,31.1
2021-07-16T21:03:00Z,00000200,60000000,,,,,,,0000.07,0000.06,0000.14,19.0,25.8,07.6,05.0,0676.1,31.1
2021-07-16T21:04:00Z,00000200,40000000,0000.40,0000.43,-000.17,-000.14,-000.01,-000.17,0000.06,-000.41,-000.20,19.1,25.6,07.5,05.1,0677.1,31.1
2021-07-16T21:05:00Z,00000200,00000000,-000.09,0000.33,-000.13,0000.19,0000.01,-000.24,0000.11,0000.48,0000.16,19.1,25.5,07.5,05.1,0677.1,31.1
2021-07-16T21:06:00Z,00000200,00000000,-000.37,0000.39,0000.36,-000.29,0000.02,-000.09,0000.29,-000.10,-000.01,19.1,25.5,07.6,05.1,0677.1,31.1
2021-07-16T21:07:00Z,00000200,00000000,0000.01,0000.16,0000.01,0000.68,-000.08,0000.26,0000.08,0000.07,0000.03,19.1,25.5,07.6,05.2,0677.1,31.1
2021-07-16T21:08:00Z,00000200,00000000,0000.07,0000.54,0000.29,-000.11,0000.10,0000.27,0000.01,0000.20,-000.01,19.1,25.5,07.7,05.2,0677.1,31.1
2021-07-16T21:09:00Z,00000200,00000000,0000.70,0000.29,-000.19,0000.24,0000.31,0000.07,0000.41,0000.14,0000.18,19.1,25.5,07.6,05.2,0677.1,31.1
2021-07-16T21:10:00Z,00000200,00000000,0000.57,0000.31,-000.12,0000.21,-000.06,0000.11,-000.48,-000.29,0000.24,19.1,25.5,07.8,05.3,0677.1,31.1
2021-07-16T21:11:00Z,00000200,00000000,-000.06,0000.27,0000.19,-000.63,-000.10,0000.04,0000.21,0000.05,-000.25,19.1,25.5,07.7,05.2,0677.1,31.1
2021-07-16T21:12:00Z,00000200,00000000,-000.09,0000.40,-000.03,-000.36,0000.29,0000.09,0000.25,0000.24,0000.22,19.1,25.5,07.7,05.3,0677.1,31.1
2021-07-16T21:13:00Z,00000200,00000000,0000.07,0000.31,-000.02,0000.03,0000.19,0000.02,-000.05,0000.21,0000.22,19.1,25.5,07.7,05.2,0677.1,31.1
2021-07-16T21:14:00Z,00000200,00000000,0000.92,0000.11,-000.05,0000.07,0000.06,-000.05,0000.06,0000.14,-000.11,19.1,25.5,07.8,05.3,0677.1,31.1
2021-07-16T21:15:00Z,00000200,00000000,-000.12,0000.13,0000.08,-000.44,0000.01,-000.20,0000.04,-000.23,0000.09,19.1,25.5,07.7,05.2,0677.1,31.1
2021-07-16T21:16:00Z,00000200,00000000,0000.48,0000.19,0000.20,-000.56,0000.06,0000.02,0000.04,0000.20,-000.24,19.1,25.4,07.8,05.3,0677.1,31.1
2021-07-16T21:17:00Z,00000200,00000000,0000.77,0000.28,-000.08,-000.11,0000.19,0000.17,0000.30,0000.29,0000.15,19.1,25.4,07.9,05.3,0677.0,31.1
2021-07-16T21:18:00Z,00000200,00000000,0000.89,0000.62,0000.34,0000.50,0000.27,0000.36,-000.21,-000.01,0000.08,19.1,25.5,07.9,05.4,0677.1,31.1
2021-07-16T21:19:00Z,00000200,00000000,0000.26,0000.48,-000.10,0000.11,0000.12,-000.18,0000.25,0000.01,0000.19,19.1,25.4,07.8,05.3,0677.1,31.1
2021-07-16T21:20:00Z,00000200,00000000,0000.41,0000.13,-000.01,-000.32,0000.08,-000.03,0000.19,0000.15,0000.12,19.1,25.4,07.8,05.3,0677.1,31.1
2021-07-16T21:21:00Z,00000200,00000000,0000.79,0000.22,0000.06,-000.73,-000.07,0000.05,0000.02,0000.22,0000.05,19.1,25.4,08.0,05.4,0677.0,31.1
2021-07-16T21:22:00Z,00000200,00000000,0000.44,0000.19,-000.16,0000.00,-000.01,0000.03,0000.16,-000.03,0000.28,19.1,25.4,08.2,05.6,0677.0,31.2
2021-07-16T21:23:00Z,00000200,00000000,-000.64,0000.38,0000.20,0000.06,0000.38,0000.26,0000.14,0000.19,-000.01,19.1,25.4,08.1,05.5,0677.1,31.1
2021-07-16T21:24:00Z,00000200,00000000,0000.69,0000.28,-000.03,0000.20,0000.31,0000.18,-000.05,-000.15,-000.16,19.1,25.4,08.1,05.5,0677.1,31.1
2021-07-16T21:25:00Z,00000200,00000000,0000.61,0000.45,0000.08,0000.38,0000.22,0000.17,-000.21,0000.15,-000.14,19.1,25.4,08.1,05.5,0677.1,31.1
2021-07-16T21:26:00Z,00000200,00000000,-000.04,0000.56,0000.17,-000.46,0000.07,0000.23,0000.08,0000.13,0000.36,19.1,25.4,08.1,05.5,0677.1,31.1
2021-07-16T21:27:00Z,00000200,00000000,0000.65,0000.58,-000.09,0000.10,0000.21,-000.13,0000.51,0000.09,0000.15,19.1,25.4,08.3,05.6,0677.1,31.1
2021-07-16T21:28:00Z,00000200,00000000,0000.04,0000.54,0000.14,0000.01,0000.08,-000.18,-000.02,-000.34,-000.15,19.1,25.4,08.2,05.6,0677.1,31.1
2021-07-16T21:29:00Z,00000200,00000000,-000.09,0000.33,-000.12,-000.01,-000.18,0000.22,-000.07,0000.45,-000.22,19.1,25.4,08.1,05.5,0677.1,31.1
2021-07-16T21:30:00Z,00000200,00000000,0000.48,0000.06,0000.01,0000.04,0000.12,-000.04,0000.08,-000.08,0000.10,19.1,25.4,08.1,05.5,0677.1,31.1
2021-07-16T21:31:00Z,00000200,00000000,-000.09,0000.29,0000.21,-000.30,0000.24,0000.11,0000.03,0000.20,0000.19,19.1,25.4,08.1,05.5,0677.1,31.1
2021-07-16T21:32:00Z,00000200,00000000,0000.16,0000.52,0000.10,-000.17,-000.05,0000.19,0000.10,-000.05,0000.23,19.0,25.3,08.2,05.6,0677.1,31.1
2021-07-16T21:33:00Z,00000200,00000000,0001.10,0000.54,0000.10,-000.05,0000.05,0000.13,0000.16,0000.16,0000.20,19.0,25.3,08.3,05.7,0677.1,31.1
2021-07-16T21:34:00Z,00000200,00000000,0000.58,0000.45,-000.19,-000.60,-000.10,-000.10,0000.30,0000.11,-000.30,19.0,25.3,08.3,05.7,0677.1,31.1
2021-07-16T21:35:00Z,00000200,00000000,0000.24,0000.63,0000.25,-000.12,0000.23,0000.23,-000.06,0000.08,0000.41,19.0,25.3,08.4,05.7,0677.1,31.1
2021-07-16T21:36:00Z,00000200,00000000,-000.30,0000.40,-000.26,-000.18,0000.35,-000.24,0000.59,0000.25,0000.00,19.0,25.3,08.5,05.8,0677.0,31.1
2021-07-16T21:37:00Z,00000200,00000000,0000.85,0000.29,0000.33,0000.21,0000.31,0000.28,-000.25,0000.12,0000.38,19.0,25.3,08.5,05.8,0677.0,31.1
2021-07-16T21:38:00Z,00000200,00000000,0000.28,0000.39,0000.02,-000.10,0000.13,0000.01,0000.16,0000.11,-000.23,19.0,25.3,08.6,05.9,0677.0,31.1
2021-07-16T21:39:00Z,00000200,00000000,0000.69,0000.12,0000.13,-000.51,-000.08,-000.16,-000.34,-000.17,0000.22,19.0,25.3,08.7,05.9,0677.0,31.1
2021-07-16T21:40:00Z,00000200,00000000,0000.21,-000.00,-000.04,-000.24,0000.03,-000.02,0000.36,0000.37,-000.28,19.0,25.3,08.8,06.0,0677.0,31.1
2021-07-16T21:41:00Z,00000200,00000000,0000.54,0000.40,0000.06,0000.40,0000.07,-000.06,0000.19,-000.15,0000.21,19.0,25.3,08.8,06.0,0677.0,31.1
2021-07-16T21:42:00Z,00000200,00000000,0000.12,0000.07,-000.18,0000.16,0000.16,-000.51,-000.20,0000.16,0000.15,19.0,25.3,08.7,05.9,0677.0,31.1
2021-07-16T21:43:00Z,00000200,00000000,0000.46,0000.35,0000.12,-000.24,-000.09,0000.08,0000.19,0000.11,0000.08,19.0,25.3,08.7,05.9,0677.0,31.1
2021-07-16T21:44:00Z,00000200,00000000,0000.10,0000.31,-000.07,-000.15,0000.23,0000.05,0000.22,-000.03,-000.04,19.0,25.3,08.8,06.0,0677.0,31.1
2021-07-16T21:45:00Z,00000200,00000000,-000.28,0000.18,-000.07,0000.47,0000.09,0000.19,0000.02,-000.01,0000.07,19.0,25.3,08.8,06.0,0677.0,31.1
2021-07-16T21:46:00Z,00000200,00000000,0000.26,0000.35,0000.34,-000.01,-000.09,-000.00,0000.29,0000.37,0000.38,19.0,25.3,08.8,06.0,0677.0,31.1
2021-07-16T21:47:00Z,00000200,00000000,0000.13,0000.18,0000.17,-000.58,0000.36,-000.12,-000.19,-000.14,-000.23,19.0,25.3,08.9,06.1,0677.0,31.1
2021-07-16T21:48:00Z,00000200,00000000,0001.09,0000.43,-000.08,-000.39,0000.19,-000.22,0000.22,0000.22,0000.22,19.0,25.2,08.9,06.1,0677.0,31.1
2021-07-16T21:49:00Z,00000200,00000000,0000.29,0000.49,-000.09,0000.49,-000.07,-000.19,-000.07,-000.18,0000.14,19.0,25.2,09.0,06.1,0677.0,31.1
2021-07-16T21:50:00Z,00000200,00000000,0000.61,0000.38,0000.06,-000.16,0000.08,-000.08,0000.16,0000.10,-000.03,19.0,25.2,08.9,06.0,0677.0,31.1
2021-07-16T21:51:00Z,00000200,00000000,0000.83,0000.18,-000.08,0000.57,-000.09,-000.08,0000.03,0000.04,0000.10,19.0,25.2,08.9,06.1,0677.0,31.1
2021-07-16T21:52:00Z,00000200,00000000,0001.26,0000.74,-000.06,-000.55,0000.13,-000.15,0000.21,0000.27,0000.24,19.0,25.2,08.9,06.1,0677.0,31.1
2021-07-16T21:53:00Z,00000200,00000000,-000.12,0000.40,0000.28,-000.30,-000.02,0000.15,-000.13,0000.04,-000.19,18.9,25.2,08.8,06.0,0677.0,31.1
2021-07-16T21:54:00Z,00000200,00000000,0000.43,0000.55,0000.21,-000.16,0000.41,0000.15,0000.26,0000.10,0000.15,18.9,25.2,09.0,06.2,0677.1,31.1
2021-07-16T21:55:00Z,00000200,00000000,-000.40,0000.35,0000.28,0000.29,0000.35,0000.06,-000.01,0000.12,-000.06,18.9,25.2,08.9,06.1,0677.1,31.1
2021-07-16T21:56:00Z,00000200,00000000,-000.01,0000.49,-000.08,0000.85,0000.12,0000.03,-000.03,-000.19,0000.11,18.9,25.2,08.9,06.1,0677.1,31.1
2021-07-16T21:57:00Z,00000200,40000000,,,,,,,-000.10,-000.14,-000.36,18.9,25.2,08.7,05.9,0676.9,31.1
2021-07-16T21:58:00Z,00000200,60000000,,,,,,,-000.29,0000.05,0000.09,18.7,25.3,08.8,05.9,0676.1,31.1
2021-07-16T21:59:00Z,00000200,20000000,,,,,,,0000.43,0000.11,0000.19,18.7,25.4,08.6,05.7,0676.1,31.1
